| time (UTC) | temp C | wind direction | speed KPH | gust KPH | rain 1hr cm | rain 24hr cm | rain mn cm | humidity % | barometer mb |
| 20260507060022 | 17 | 194 | 11.3 | 25.7 | 0.00 | 0.00 | 0.00 | 59 | 1013.8 |
| 20260507054507 | 17 | 167 | 11.3 | 29.0 | 0.00 | 0.00 | 0.00 | 58 | 1013.7 |
| 20260507053006 | 17 | 129 | 11.3 | 24.1 | 0.00 | 0.00 | 0.00 | 57 | 1013.8 |
| 20260507051506 | 17 | 185 | 8.0 | 24.1 | 0.00 | 0.00 | 0.00 | 56 | 1013.8 |
| 20260507044509 | 18 | 145 | 3.2 | 8.0 | 0.00 | 0.00 | 0.00 | 54 | 1013.9 |
| 20260507043012 | 19 | 148 | 4.8 | 9.7 | 0.00 | 0.00 | 0.00 | 48 | 1013.9 |
| 20260507041508 | 20 | 182 | 3.2 | 8.0 | 0.00 | 0.00 | 0.00 | 38 | 1013.8 |
| 20260507040016 | 21 | 145 | 3.2 | 8.0 | 0.00 | 0.00 | 0.00 | 35 | 1013.7 |
| 20260507031522 | 22 | 196 | 0.0 | 4.8 | 0.00 | 0.00 | 0.00 | 36 | 1012.9 |
| 20260507024520 | 23 | 196 | 0.0 | 4.8 | 0.00 | 0.00 | 0.00 | 35 | 1012.6 |
| 20260507021531 | 23 | 297 | 0.0 | 4.8 | 0.00 | 0.00 | 0.00 | 36 | 1012.4 |
| 20260507020023 | 24 | 297 | 0.0 | 0.0 | 0.00 | 0.00 | 0.00 | 45 | 1012.1 |
| 20260507014525 | 24 | 297 | 0.0 | 6.4 | 0.00 | 0.00 | 0.00 | 44 | 1012.1 |
| 20260507011516 | 24 | 158 | 9.7 | 27.4 | 0.00 | 0.00 | 0.00 | 43 | 1011.5 |
| 20260507010029 | 25 | 166 | 11.3 | 27.4 | 0.00 | 0.00 | 0.00 | 43 | 1011.5 |
| 20260507003002 | 25 | 171 | 12.9 | 24.1 | 0.00 | 0.00 | 0.00 | 42 | 1011.4 |
| 20260507001502 | 25 | 224 | 6.4 | 24.1 | 0.00 | 0.00 | 0.00 | 42 | 1011.4 |
| 20260507000004 | 26 | 172 | 4.8 | 25.7 | 0.00 | 0.00 | 0.00 | 41 | 1011.4 |
| 20260506234504 | 26 | 160 | 12.9 | 25.7 | 0.00 | 0.00 | 0.00 | 39 | 1011.2 |
| 20260506233002 | 26 | 165 | 12.9 | 32.2 | 0.00 | 0.00 | 0.00 | 39 | 1011.4 |
| 20260506231503 | 26 | 190 | 11.3 | 29.0 | 0.00 | 0.00 | 0.00 | 41 | 1011.5 |
| 20260506230002 | 26 | 178 | 9.7 | 27.4 | 0.00 | 0.00 | 0.00 | 40 | 1011.6 |
| 20260506224504 | 26 | 96 | 11.3 | 24.1 | 0.00 | 0.00 | 0.00 | 39 | 1011.7 |
| 20260506223007 | 26 | 166 | 8.0 | 29.0 | 0.00 | 0.00 | 0.00 | 37 | 1011.9 |
| 20260506220003 | 26 | 66 | 9.7 | 24.1 | 0.00 | 0.00 | 0.00 | 36 | 1012.3 |
| 20260506214503 | 26 | 249 | 6.4 | 22.5 | 0.00 | 0.00 | 0.00 | 36 | 1012.4 |
| 20260506213007 | 26 | 184 | 8.0 | 27.4 | 0.00 | 0.00 | 0.00 | 36 | 1012.7 |
| 20260506211504 | 26 | 217 | 11.3 | 25.7 | 0.00 | 0.00 | 0.00 | 36 | 1012.9 |
| 20260506204507 | 26 | 171 | 8.0 | 24.1 | 0.00 | 0.00 | 0.00 | 38 | 1013.2 |
| 20260506203013 | 26 | 170 | 11.3 | 20.9 | 0.00 | 0.00 | 0.00 | 37 | 1013.2 |
| 20260506200007 | 26 | 216 | 6.4 | 25.7 | 0.00 | 0.00 | 0.00 | 40 | 1013.3 |
| 20260506194505 | 26 | 211 | 12.9 | 30.6 | 0.00 | 0.00 | 0.00 | 38 | 1013.4 |
| 20260506193006 | 25 | 217 | 4.8 | 22.5 | 0.00 | 0.00 | 0.00 | 41 | 1013.4 |
| 20260506191507 | 25 | 109 | 12.9 | 25.7 | 0.00 | 0.00 | 0.00 | 41 | 1013.4 |
| 20260506190009 | 23 | 192 | 12.9 | 30.6 | 0.00 | 0.00 | 0.00 | 45 | 1013.5 |
| 20260506183013 | 23 | 159 | 11.3 | 32.2 | 0.00 | 0.00 | 0.00 | 47 | 1013.6 |
| 20260506181520 | 22 | 109 | 12.9 | 25.7 | 0.00 | 0.00 | 0.00 | 48 | 1013.8 |
| 20260506180009 | 22 | 240 | 14.5 | 25.7 | 0.00 | 0.00 | 0.00 | 51 | 1013.9 |
| 20260506174515 | 21 | 175 | 11.3 | 27.4 | 0.00 | 0.00 | 0.00 | 53 | 1013.9 |
| 20260506173013 | 21 | 182 | 14.5 | 30.6 | 0.00 | 0.00 | 0.00 | 55 | 1014.0 |
| 20260506171520 | 20 | 76 | 9.7 | 24.1 | 0.00 | 0.00 | 0.00 | 56 | 1014.2 |
| 20260506164517 | 19 | 126 | 11.3 | 30.6 | 0.00 | 0.00 | 0.00 | 59 | 1014.3 |
| 20260506163022 | 18 | 117 | 12.9 | 27.4 | 0.00 | 0.00 | 0.00 | 63 | 1014.4 |
| 20260506154514 | 16 | 60 | 16.1 | 32.2 | 0.00 | 0.00 | 0.00 | 75 | 1014.0 |
| 20260506153010 | 16 | 123 | 12.9 | 27.4 | 0.00 | 0.00 | 0.00 | 69 | 1014.0 |
| 20260506151506 | 16 | 180 | 11.3 | 30.6 | 0.00 | 0.00 | 0.00 | 68 | 1014.0 |
| 20260506150002 | 16 | 161 | 11.3 | 25.7 | 0.00 | 0.00 | 0.00 | 70 | 1013.9 |
| 20260506144505 | 15 | 163 | 17.7 | 30.6 | 0.00 | 0.00 | 0.00 | 71 | 1013.9 |
| 20260506143006 | 15 | 167 | 9.7 | 24.1 | 0.00 | 0.00 | 0.00 | 71 | 1013.7 |
| 20260506141521 | 15 | 178 | 14.5 | 29.0 | 0.00 | 0.00 | 0.00 | 71 | 1013.6 |
| 20260506140007 | 15 | 205 | 9.7 | 29.0 | 0.00 | 0.00 | 0.00 | 71 | 1013.7 |
| 20260506134507 | 15 | 159 | 11.3 | 24.1 | 0.00 | 0.00 | 0.00 | 71 | 1013.5 |
| 20260506133009 | 15 | 207 | 11.3 | 19.3 | 0.00 | 0.00 | 0.00 | 70 | 1013.4 |
| 20260506130005 | 15 | 153 | 9.7 | 19.3 | 0.00 | 0.00 | 0.00 | 69 | 1012.9 |
| 20260506124522 | 15 | 159 | 6.4 | 20.9 | 0.00 | 0.00 | 0.00 | 69 | 1012.7 |
| 20260506123009 | 15 | 148 | 6.4 | 22.5 | 0.00 | 0.00 | 0.00 | 68 | 1012.7 |
| 20260506121516 | 15 | 236 | 8.0 | 16.1 | 0.00 | 0.00 | 0.00 | 69 | 1012.5 |
| 20260506120011 | 15 | 156 | 9.7 | 19.3 | 0.00 | 0.00 | 0.00 | 67 | 1012.5 |
| 20260506113008 | 15 | 202 | 8.0 | 16.1 | 0.00 | 0.00 | 0.00 | 68 | 1012.2 |
| 20260506111510 | 15 | 197 | 8.0 | 17.7 | 0.00 | 0.00 | 0.00 | 70 | 1012.2 |
| 20260506110016 | 15 | 225 | 8.0 | 16.1 | 0.00 | 0.00 | 0.00 | 69 | 1012.1 |
| 20260506104522 | 15 | 141 | 8.0 | 16.1 | 0.00 | 0.00 | 0.00 | 68 | 1012.0 |
| 20260506103022 | 16 | 167 | 6.4 | 16.1 | 0.00 | 0.00 | 0.00 | 68 | 1011.9 |
| 20260506101531 | 16 | 161 | 6.4 | 17.7 | 0.00 | 0.00 | 0.00 | 66 | 1012.0 |
| 20260506094523 | 17 | 213 | 3.2 | 17.7 | 0.00 | 0.00 | 0.00 | 64 | 1011.9 |
| 20260506093021 | 17 | 252 | 1.6 | 19.3 | 0.00 | 0.00 | 0.00 | 63 | 1011.9 |
| 20260506091524 | 17 | 184 | 8.0 | 22.5 | 0.00 | 0.00 | 0.00 | 62 | 1011.7 |
| 20260506090006 | 18 | 175 | 9.7 | 20.9 | 0.00 | 0.00 | 0.00 | 59 | 1011.5 |
| 20260506084507 | 18 | 164 | 11.3 | 22.5 | 0.00 | 0.00 | 0.00 | 56 | 1011.3 |
| 20260506083003 | 19 | 153 | 9.7 | 19.3 | 0.00 | 0.00 | 0.00 | 54 | 1011.2 |
| 20260506081509 | 20 | 212 | 6.4 | 22.5 | 0.00 | 0.00 | 0.00 | 50 | 1011.1 |
| 20260506073003 | 21 | 142 | 6.4 | 19.3 | 0.00 | 0.00 | 0.00 | 46 | 1011.1 |
| 20260506071503 | 20 | 161 | 6.4 | 19.3 | 0.00 | 0.00 | 0.00 | 47 | 1011.1 |
| 20260506061503 | 21 | 139 | 3.2 | 12.9 | 0.00 | 0.00 | 0.00 | 48 | 1011.0 |